Retour au catalogue

THORAD AGENA D DEB

ActifSSO
NORAD 5691·DEBRIS·🇺🇸 United States

Lancé Apr 8, 1970 depuis Vandenberg Space Force Base

Loading…

Prochains Passages (prochaines 24 heures)

TLE

FraisSource: Space-Track

Époque: Sep 14, 2026, 15:51 UTC

1 05691U 70025LW  26257.66104651  .00001266  00000-0  74816-3 0  9990
2 05691  98.8880 329.8459 0032623   0.4747 359.6449 14.09312221842270

Suivez THORAD AGENA D DEB en temps réel avec AllMySat

Download on the App Store